International Virtual Aviation Organisation

Russian Federation and Kazakhstan MCD

 

Карточка аэропорта UATT

Внимание!
Информация на этой странице в стадии наполнения.
Если вы не увидели какой-то информации, или заметили неточность - пожалуйста сообщите нам!
Спасибо!
Команда RU-STAFF
Название аэропортаАктобе
Название аэропорта (англ.)Aktobe
Превышение738 ft. (224.9 m.)
Координаты50°14.748', 57°12.402'
Высота перехода2710
Эшелон переходаFL40
Коды ответчика3440-3447, 3540-3547
Зона ОрВДАктобе РПИ (UATT)
Данные METARUATT 241300Z 17006MPS 9999 OVC008 M04/M05 Q1012 R13/450550 NOSIG RMK QFE740/0986
Проноз погоды (TAF)UATT 241100Z 2412/2512 16007MPS 3100 -SN BR OVC011 TX02/2420Z TNM04/2412Z TEMPO 2412/2418 1000 OVC005 TEMPO 2418/2506 0500 FZFG VV002 FM250600 16005MPS 2000 -DZ BR OVC005
NOTAMshow/hide NOTAM
AWOS   TABLE

Информация о ВПП

ВПП Длина ВПП (м.) Покрытие Курс ВПП Частота ILS
133202Бетон135111.7
313202Бетон315111.7

Диспетчерские позиции




Спутниковое изображение